Regional Weather Roundup
Issued by NWS Green Bay, WI

Home | Current Version | Previous Version | Text Only | Print | Product List | Glossary On
Versions: 1 2 3 4 5 6 7 8 9 10 11 12 13 14 15 16 17 18 19 20 21 22 23 24 25 26 27 28 29 30 31 32 33 34 35 36 37 38 39 40 41 42 43 44 45 46 47 48 49 50
000
ASUS43 KGRB 220710
RWRGRB

NORTH-CENTRAL AND NORTHEAST WISCONSIN REGIONAL WEATHER ROUNDUP
NATIONAL WEATHER SERVICE GREEN BAY WI
100 AM CST MON DEC 22 2014

WIZ005-009-010>012-018-019-220800-
NORTH CENTRAL WISCONSIN

CITY           SKY/WX    TMP DP  RH WIND       PRES   REMARKS
IRONWOOD       CLOUDY    36  34  93 S8G18     29.75S
MANITOWISH WTR LGT SNOW  32  32 100 S9        29.80S
ARBOR VITAE    MIX PCPN  34  32  93 S10       29.81F
EAGLE RIVER    LGT SNOW  32  32 100 S7        29.83S
LAND O LAKES   LGT SNOW  33  32  96 S8        29.83S
RHINELANDER    CLOUDY    32  30  92 S8        29.84S
PHILLIPS       DRIZZLE   33  32  99 S10G17    29.80S
ANTIGO         CLOUDY    31  31  99 S10       29.87S FOG
TOMAHAWK       DRIZZLE   32  31  98 S5        29.84S
MERRILL        CLOUDY    33  33 100 S7        29.85F FOG
$$

WIZ013-073-220800-
NORTHEAST WISCONSIN

CITY           SKY/WX    TMP DP  RH WIND       PRES   REMARKS
IRON MOUNTAIN  CLOUDY    33  31  92 S10       29.89F FOG
MARINETTE      CLOUDY    36  30  80 S13G21    29.95F
OCONTO         CLOUDY    35  32  87 S8G17     29.95S
$$

WIZ017-030-035>037-045-220800-
CENTRAL WISCONSIN

CITY           SKY/WX    TMP DP  RH WIND       PRES   REMARKS
MEDFORD        CLOUDY    32  32  99 S12       29.82F FOG
WAUSAU         CLOUDY    33  31  92 S13       29.86S FOG
MOSINEE        CLOUDY    32  32 100 SE10G16   29.87S FOG
MARSHFIELD     CLOUDY    34  32  92 S13       29.84F FOG
WISC RAPIDS    LGT SNOW  34  30  85 S9        29.89S FOG
STEVENS POINT  LGT SNOW  32  30  92 S8        29.89S
WAUPACA        CLOUDY    37  31  81 S8        29.93S
SHAWANO        CLOUDY    37  31  81 S7        29.93F
CLINTONVILLE   CLOUDY    34  30  86 S12G17    29.93S
$$

WIZ038-039-048-051-220800-
FOX VALLEY

CITY           SKY/WX    TMP DP  RH WIND       PRES   REMARKS
NWS GREEN BAY  CLOUDY    36  30  79 S13       29.95F
APPLETON       CLOUDY    34  30  86 S13G18    29.93F
OSHKOSH        CLOUDY    35  29  78 S12       29.94F
FOND DU LAC    CLOUDY    35  29  78 S10       29.95F
$$

WIZ022-050-052-220800-
EAST CENTRAL WISCONSIN

CITY           SKY/WX    TMP DP  RH WIND       PRES   REMARKS
STURGEON BAY   CLOUDY    36  30  80 S13G18    29.98S
MANITOWOC      CLOUDY    37  32  82 S12       29.98F
SHEBOYGAN      CLOUDY    36  31  82 S16G23    29.98F
$$

LMZ563-521-522-541>543-220800-
LAKESHORE

STATION/POSITION TIME  TEMP    WIND        PRES    VSBY  WAVE
                       AIR SEA DIR/SP/G                  HT/PER
                 (UTC) (F)     (DEG/KT/KT) (MB)    (MI)  (FT/S)
SHEBOYGAN LKSHOR 0700   37 36  180/ 26/ 29 1015.7F
KEWAUNEE LKSHORE 0700   36     190/ 12/ 16 1014.4F
ALGOMA MARINA    0700          210/ 24/ 28   N/A
NORTHPORT PIER   0700   36     150/ 14/ 20 1015.2S
SISTER BAY LKSHO 0700          170/ 17/ 22   N/A
CHAMBERS ISLAND  0700   37     170/  6/ 15 1014.9S
MENOMINEE LKSHOR 0700   36     170/ 10/ 15 1015.2F
$$



USA.gov is the U.S. government's official web portal to all federal, state and local government web resources and services.